This demonstration page uses our WeatherBlox Daily Observations layout. Learn more.

38.88101, -77.10428

Hourly Observations for June 9, 2019

Temp ( °F °C ) Dew Point ( °F °C ) Humidity (%) Winds ( mph kmh ) Pressure ( in mb ) Visibility ( mi km ) Precip ( " mm )
12:52 am 00:52 Cloudy 71 21.7 54 12.2 55 55 ENE 9 15 30.16 1021 10 16.0934 0 0
1:52 am 01:52 Cloudy 71 21.7 55 12.8 57 57 ENE 10 17 30.16 1021 10 16.0934 0 0
2:52 am 02:52 Cloudy 70 21.1 57 13.9 64 64 NE 12 19 30.13 1020 10 16.0934 0 0
3:52 am 03:52 Mostly Cloudy 69 20.6 58 14.4 68 68 ENE 12 19 30.12 1020 10 16.0934 0 0
4:52 am 04:52 Mostly Cloudy 68 20 59 15 73 73 NE 13 20 30.12 1020 10 16.0934 0 0
5:52 am 05:52 Mostly Cloudy 67 19.4 60 15.6 79 79 ENE 15 24 30.13 1020 10 16.0934 0 0
6:52 am 06:52 Mostly Cloudy 68 20 61 16.1 78 78 NE 15 24 30.15 1021 10 16.0934 0 0
7:37 am 07:37 Mostly Cloudy 70 21.1 62 16.7 76 76 NE 14 22 30.16 1021 10 16.0934 0 0
7:52 am 07:52 Mostly Cloudy 70 21.1 62 16.7 76 76 NE 9 15 30.16 1021 10 16.0934 0 0
8:52 am 08:52 Cloudy 72 22.2 63 17.2 73 73 NE 12 19 30.17 1022 10 16.0934 0 0
9:52 am 09:52 Cloudy with Light Rain 72 22.2 63 17.2 73 73 NE 12 19 30.16 1022 10 16.0934 0 0.0254
10:09 am 10:09 Cloudy 73 22.8 63 17.2 71 71 NE 15 24 30.17 1022 10 16.0934 0 0.0254
10:11 am 10:11 Cloudy 73 22.8 63 17.2 71 71 ENE 13 20 30.17 1022 10 16.0934 0 0.0254
10:52 am 10:52 Cloudy with Light Rain 72 22.2 65 18.3 79 79 ENE 15 24 30.16 1021 5 8.0467 0 0.0254
10:58 am 10:58 Cloudy with Light Rain 71 21.7 65 18.3 81 81 ENE 16 26 30.16 1021 4 6.43736 0.01 0.254
11:22 am 11:22 Cloudy with Light Rain 72 22.2 64 17.8 76 76 NE 20 31 30.17 1022 10 16.0934 0.02 0.508
11:35 am 11:35 Cloudy with Rain 71 21.7 65 18.3 81 81 ENE 17 28 30.17 1022 5 8.0467 0.03 0.762
11:52 am 11:52 Cloudy with Light Rain 71 21.7 65 18.3 81 81 ENE 15 24 30.16 1021 5 8.0467 0.05 1.27
12:00 pm 12:00 Cloudy with Light Rain 71 21.7 66 18.9 84 84 ENE 13 20 30.17 1022 9 14.48406 0 0.0254
12:08 pm 12:08 Cloudy with Light Rain 71 21.7 66 18.9 84 84 ENE 16 26 30.17 1022 4 6.43736 0.01 0.254
12:13 pm 12:13 Cloudy with Light Rain 71 21.7 66 18.9 84 84 ENE 15 24 30.17 1022 2.5 4.02335 0.01 0.254
12:29 pm 12:29 Cloudy with Light Rain 71 21.7 67 19.4 87 87 ENE 13 20 30.17 1022 2.5 4.02335 0.03 0.762
12:41 pm 12:41 Cloudy with Light Rain 71 21.7 67 19.4 87 87 ENE 15 24 30.17 1022 2.5 4.02335 0.05 1.27
12:45 pm 12:45 Cloudy with Light Rain 71 21.7 67 19.4 87 87 ENE 13 20 30.16 1021 2.5 4.02335 0.05 1.27
12:47 pm 12:47 Cloudy with Light Rain 72 22 68 20 88 88 NE 14 22 30.16 1021 3 4.82802 0.05 1.27
12:49 pm 12:49 Cloudy with Light Rain 72 22 68 20 88 88 ENE 16 26 30.17 1022 3 4.82802 0.05 1.27
12:52 pm 12:52 Cloudy with Light Rain 71 21.7 68 20 90 90 ENE 16 26 30.16 1021 3 4.82802 0.05 1.27
12:54 pm 12:54 Cloudy with Light Rain 71 21.7 67 19.4 87 87 ENE 15 24 30.16 1021 3 4.82802 0 0.0254
12:56 pm 12:56 Cloudy with Light Rain 71 21.7 67 19.4 87 87 ENE 13 20 30.16 1021 3 4.82802 0 0.0254
1:00 pm 13:00 Cloudy with Light Rain 71 21.7 68 20 90 90 ENE 14 22 30.16 1021 3 4.82802 0.01 0.254
1:11 pm 13:11 Cloudy with Light Rain 71 21.7 67 19.4 87 87 ENE 14 22 30.16 1021 5 8.0467 0.01 0.254
1:13 pm 13:13 Cloudy with Light Rain 71 21.7 67 19.4 87 87 NE 14 22 30.16 1021 5 8.0467 0.01 0.254
1:52 pm 13:52 Cloudy with Light Rain 72 22.2 67 19.4 84 84 ENE 14 22 30.15 1021 10 16.0934 0.01 0.254
2:52 pm 14:52 Cloudy with Light Rain 72 22.2 66 18.9 82 82 E 15 24 30.14 1021 10 16.0934 0 0.0254
3:05 pm 15:05 Cloudy with Light Rain 71 21.7 67 19.4 87 87 ENE 20 31 30.14 1021 2.5 4.02335 0 0.0254
3:23 pm 15:23 Cloudy with Light Rain 71 21.7 67 19.4 87 87 ENE 12 19 30.15 1021 2.5 4.02335 0 0.0254
3:39 pm 15:39 Cloudy with Light Rain 71 21.7 67 19.4 87 87 ENE 14 22 30.14 1021 4 6.43736 0.01 0.254
3:52 pm 15:52 Cloudy with Light Rain 71 21.7 66 18.9 84 84 ENE 16 26 30.14 1021 10 16.0934 0.01 0.254
4:10 pm 16:10 Cloudy with Light Rain 71 21.7 66 18.9 84 84 ENE 15 24 30.14 1021 3 4.82802 0 0.0254
4:45 pm 16:45 Cloudy with Light Rain 70 21.1 66 18.9 87 87 ENE 20 31 30.13 1020 6 9.65604 0 0.0254
4:52 pm 16:52 Cloudy with Light Rain 70 21.1 65 18.3 84 84 ENE 21 33 30.13 1020 7 11.26538 0 0.0254
5:01 pm 17:01 Cloudy with Light Rain 70 21.1 66 18.9 87 87 ENE 20 31 30.14 1021 6 9.65604 0 0.0254
5:19 pm 17:19 Cloudy with Light Rain 69 20.6 66 18.9 90 90 ENE 18 30 30.13 1020 6 9.65604 0 0.0254
5:49 pm 17:49 Cloudy with Light Rain 70 21 66 19 88 88 ENE 16 26 30.12 1020 2.5 4.02335 0 0.0254
5:52 pm 17:52 Cloudy with Light Rain 69 20.6 66 18.9 90 90 ENE 16 26 30.12 1020 2.5 4.02335 0 0.0254
6:00 pm 18:00 Cloudy with Light Rain 69 20.6 66 18.9 90 90 ENE 15 24 30.12 1020 3 4.82802 0 0.0254
6:07 pm 18:07 Cloudy with Light Rain 69 20.6 66 18.9 90 90 ENE 14 22 30.13 1020 2.5 4.02335 0 0.0254
6:32 pm 18:32 Cloudy with Light Rain 69 20.6 66 18.9 90 90 ENE 14 22 30.13 1020 6 9.65604 0.01 0.254
6:52 pm 18:52 Cloudy 69 20.6 66 18.9 90 90 ENE 14 22 30.12 1020 7 11.26538 0.01 0.254
7:12 pm 19:12 Cloudy with Light Rain 69 20.6 65 18.3 87 87 ENE 15 24 30.13 1020 3 4.82802 0 0.0254
7:23 pm 19:23 Cloudy 68 20 65 18.3 90 90 ENE 17 28 30.13 1020 7 11.26538 0 0.0254
7:52 pm 19:52 Cloudy 68 20 64 17.8 87 87 ENE 16 26 30.13 1020 10 16.0934 0 0.0254
8:52 pm 20:52 Cloudy 67 19.4 63 17.2 87 87 ENE 14 22 30.13 1020 10 16.0934 0 0
9:52 pm 21:52 Cloudy 67 19.4 62 16.7 84 84 ENE 15 24 30.14 1021 10 16.0934 0 0
10:52 pm 22:52 Cloudy 67 19.4 61 16.1 81 81 ENE 14 22 30.11 1020 10 16.0934 0 0.0254
11:41 pm 23:41 Cloudy with Light Rain 65 18.3 62 16.7 90 90 NE 14 22 30.11 1020 10 16.0934 0 0.0254
11:52 pm 23:52 Cloudy with Light Drizzle 65 18.3 62 16.7 90 90 NE 12 19 30.1 1019 9 14.48406 0 0.0254
11:59 pm 23:59 Cloudy with Light Drizzle 65 18.3 62 16.7 90 90 NE 12 19 30.11 1020 6 9.65604 0 0.0254

Powered by AerisWeather